TIME,DELAY(SENSOR),PRES,T(CTD),SAL,OXYGEN,RAWTEMP,T(OPTODE),TCPHASE,FLUOR,BETA(BETA700),BETA(BETA412),BETA(BETA440),CDOM,C(CSC),ED(ED412.40),ED(ED444.00),ED(ED489.70),ED(ED554.30),LU(LU411.80),LU(LU443.40),LU(LU489.60),LU(LU554.10),COMP,TILTX,TILTX(TILTY),CHECK
1373319926,5808,497.7500000000000000,6.5413999557495120,34.1257019042968750,72.7612762451171900,601.8715209960938000,6.5237960815429690,49.8057594299316400,52,102,87,78,79,15411,2147751515,2147427026,2148006701,2147872393,2147630153,2147076032,2148245266,2147198857,1255,3,13,2842
1373320058,5808,486.3999938964844000,6.7869000434875490,34.1074981689453100,83.9933166503906200,594.3812255859375000,6.7656230926513670,48.3620491027832000,52,104,90,80,77,15413,2147746130,2147424630,2148006171,2147874514,2147628763,2147072320,2148245293,2147200658,577,3,13,34706
1373320192,5808,475.3500061035156000,6.9233999252319340,34.0951995849609400,92.5618896484375000,590.0883178710938000,6.9039878845214840,47.3395118713378900,50,103,86,80,77,15412,2147746194,2147427126,2148007177,2147874596,2147631780,2147079058,2148240301,2147200713,2898,4,13,24726
1373320324,5810,464.8500061035156000,7.0503997802734375,34.0896987915039060,98.9382171630859400,586.0457763671875000,7.0341191291809080,46.5893898010253900,51,104,87,80,76,15413,2147742345,2147422637,2148006226,2147878016,2147626130,2147078500,2148242432,2147199478,2446,3,13,39141
1373320478,5807,453.7300109863281000,7.3551001548767090,34.0878982543945300,106.0467987060546900,576.7098999023438000,7.3340888023376465,45.7028198242187500,50,104,89,79,76,15410,2147745563,2147425792,2148008566,2147871286,2147624630,2147073728,2148236480,2147200713,1803,3,13,4325
1373320627,5808,442.3800048828125000,7.5343999862670900,34.0914001464843750,112.6670989990234400,570.9025878906250000,7.5202879905700680,44.9417991638183600,50,104,85,80,75,15409,2147743917,2147428635,2148007734,2147876416,2147626944,2147079149,2148239625,2147199195,682,3,13,27591
1373320758,5809,431.3800048828125000,7.6764001846313480,34.0889015197753900,119.3152999877929700,566.3483886718750000,7.6661000251770020,44.2215805053710940,51,106,88,80,74,15410,2147745051,2147427666,2148005732,2147873920,2147626834,2147077595,2148240502,2147199899,2699,3,13,17633
1373320892,5810,420.1600036621094000,7.9302000999450680,34.0876007080078100,127.2997970581054700,558.6918945312500000,7.9108371734619140,43.3467407226562500,50,103,88,80,75,15411,2147739776,2147425444,2148003766,2147873078,2147621714,2147084013,2148234953,2147201051,1797,3,13,56788
1373321013,5810,409.7399902343750000,8.1597995758056640,34.0842018127441400,138.7680053710937500,551.4044189453125000,8.1433172225952150,42.2029991149902340,50,105,85,79,76,15408,2147743396,2147426112,2148003757,2147875931,2147622884,2147088685,2148238217,2147201243,452,4,13,14543
1373321147,5807,397.5499877929687500,8.4295997619628900,34.0899009704589840,142.4122009277343800,542.8255004882812000,8.4164304733276370,41.7438392639160160,50,104,84,80,75,15408,2147743853,2147424054,2148003309,2147871140,2147620534,2147090605,2148235236,2147201709,3168,3,13,44962
1373321268,5810,386.4200134277344000,8.7493000030517580,34.0839996337890600,157.1611022949218800,533.3176269531250000,8.7184257507324220,40.3811302185058600,50,104,88,79,73,15412,2147741293,2147424576,2148003200,2147872640,2147617910,2147087286,2148233956,2147201234,2134,4,13,5057
1373321388,5804,375.4700012207031000,8.9732999801635740,34.0904998779296900,173.0476989746093800,525.4197998046875000,8.9687442779541020,39.0551185607910160,50,103,87,81,71,15414,2147740178,2147425746,2148006381,2147873142,2147617764,2147090084,2148229961,2147203776,792,3,13,22064
1373321521,5811,364.0100097656250000,9.2267999649047850,34.0965003967285160,184.1356048583984400,517.4312133789062000,9.2214565277099610,38.1469383239746100,50,103,88,80,72,15413,2147735552,2147428992,2148007232,2147873499,2147615835,2147092370,2148229458,2147202678,2433,3,13,61565
1373321653,5808,353.4100036621094000,9.5586996078491210,34.1049003601074200,191.0823974609375000,507.1700134277344000,9.5453662872314450,37.5111618041992200,49,104,89,79,72,15411,2147735570,2147425362,2148006107,2147875190,2147616539,2147093156,2148233106,2147200512,1834,3,13,15630
1373321796,5809,342.6600036621094000,9.7938003540039060,34.1147003173828100,194.6811981201172000,499.6799011230469000,9.7813291549682620,37.1521492004394500,49,104,88,79,71,15404,2147735597,2147426102,2148010651,2147875392,2147610806,2147092096,2148229010,2147201078,728,3,13,40382
1373321922,5812,331.4899902343750000,9.9497995376586910,34.1225013732910160,201.1170959472656200,494.5436096191406000,9.9429140090942380,36.6633186340332000,49,104,89,79,69,15411,2147734235,2147427218,2148011072,2147875419,2147610870,2147097170,2148230518,2147206491,3569,3,13,23752
1373322043,5809,320.2500000000000000,10.2161998748779300,34.1342010498046900,206.1735992431640600,485.7495117187500000,10.2191495895385740,36.2090606689453100,49,103,87,79,71,15409,2147732672,2147428233,2148017801,2147873152,2147612772,2147105252,2148230656,2147208045,2798,3,13,40840
1373322166,5806,309.0299987792969000,10.6626996994018550,34.1432991027832000,208.5614013671875000,471.9487915039062500,10.6516399383544920,35.8379402160644500,48,104,83,79,69,15411,2147731565,2147430043,2148021257,2147875876,2147606656,2147099044,2148229321,2147205522,2365,3,14,15473
1373322286,5808,298.5400085449219000,11.1030998229980470,34.1511001586914060,203.8137969970703000,457.9444885253906000,11.0892896652221680,35.8904991149902340,49,103,87,80,69,15412,2147726784,2147429860,2148032210,2147874678,2147607296,2147111085,2148231433,2147204150,1119,3,13,38161
1373322408,5807,287.6099853515625000,11.5148000717163090,34.1874008178710940,218.9945983886718800,444.6661071777344000,11.5031900405883790,34.7975502014160160,49,103,82,81,68,15412,2147727945,2147435446,2148034413,2147873526,2147603986,2147113106,2148233490,2147205750,268,3,14,30840
1373322528,5807,276.7000122070312500,11.9659004211425780,34.2102012634277340,218.7980957031250000,429.5295104980469000,11.9738197326660160,34.5674095153808600,48,104,88,80,67,15408,2147728713,2147439597,2148062957,2147873444,2147603812,2147120475,2148242057,2147206893,2328,3,14,32217
1373322648,5809,265.3599853515625000,12.2869997024536130,34.2364997863769500,219.3973999023437500,419.6155090332031000,12.2814197540283200,34.3779983520507800,48,106,89,79,68,15408,2147730230,2147447350,2148090688,2147875437,2147601627,2147129261,2148254116,2147208658,2380,3,13,4784
1373322770,5810,254.1000061035156200,12.8655004501342770,34.2759017944335940,218.8498992919922000,399.9338989257812500,12.8906898498535160,34.1014709472656250,48,104,88,79,67,15401,2147726518,2147444891,2148064118,2147871817,2147597750,2147128941,2148239085,2147211008,1730,3,14,58560
1373322901,5810,243.2200012207031200,13.4013004302978520,34.3176994323730500,219.8793945312500000,383.2669067382812500,13.4053096771240230,33.7891197204589840,49,104,85,79,68,15405,2147727213,2147482596,2148187245,2147874130,2147595931,2147155273,2148294784,2147211858,1521,3,14,44892
1373323034,5806,233.2899932861328000,13.9141998291015620,34.3536987304687500,221.0265045166015600,366.8605041503906000,13.9107999801635740,33.4783897399902340,47,104,84,80,66,15403,2147723949,2147457060,2148091913,2147872009,2147595867,2147142528,2148245787,2147212086,1012,3,13,21196
1373323220,5811,222.0899963378906200,14.2172002792358400,34.3254013061523440,210.7048950195312500,357.4352111816406000,14.2007598876953120,33.9082908630371100,49,105,86,80,67,15399,2147730624,2147541714,2148354688,2147870491,2147592914,2147196178,2148366774,2147217609,675,3,14,8648
1373323404,5810,210.9600067138672000,15.3318004608154300,34.4562988281250000,212.9579010009765600,319.4057922363281000,15.3679599761962890,33.2159309387207000,50,107,86,81,66,15393,2147736192,2147603437,2148496630,2147873837,2147592356,2147233179,2148432027,2147225398,3307,2,14,56330
1373323543,5811,199.8600006103515600,16.2285003662109380,34.5894012451171900,221.4842987060547000,292.0281982421875000,16.2060794830322270,32.3568000793457000,49,105,86,80,66,15397,2147749897,2147695872,2148701293,2147873014,2147595136,2147294217,2148527350,2147230345,2652,3,15,35432
1373323597,5811,195.6199951171875000,16.5949993133544920,34.6332015991210940,221.2339935302734400,279.8186950683594000,16.5794391632080080,32.1961898803710940,50,104,86,82,64,15392,2147753801,2147737197,2148800246,2147872749,2147595693,2147320978,2148576960,2147235510,2860,3,14,44477
1373323675,5808,190.1900024414062500,16.7994995117187500,34.6595001220703100,221.4680938720703000,272.6390075683594000,16.7988891601562500,32.0822715759277340,51,108,85,80,65,15392,2147761627,2147756324,2148825280,2147873673,2147597430,2147333257,2148584393,2147236699,2718,2,14,37266
1373323740,5808,186.2799987792968800,17.0004997253417970,34.6828994750976560,220.8733978271484400,265.5444946289062500,17.0156898498535160,32.0137596130371100,52,106,88,80,63,15391,2147774134,2147839286,2149021915,2147876672,2147601782,2147384905,2148683968,2147241984,1986,3,15,60022
1373323816,5808,182.0899963378906200,17.2292003631591800,34.7085990905761700,220.4001007080078000,258.4531860351562500,17.2323303222656250,31.9392108917236330,53,108,86,80,65,15384,2147792493,2147908022,2149158107,2147877632,2147607853,2147420150,2148742747,2147246966,1907,2,15,925
1373323881,5810,178.5899963378906200,17.3526992797851560,34.7237014770507800,220.1170959472656200,254.7308044433593800,17.3460407257080080,31.9018096923828120,53,108,86,81,65,15386,2147810276,2147978560,2149319250,2147878107,2147614354,2147471926,2148815469,2147252324,1479,2,15,20468
1373323959,5807,174.6100006103515600,17.8540000915527340,34.7780990600585940,217.5476989746093800,238.0955047607422000,17.8541202545166000,31.8061599731445300,58,112,87,80,64,15380,2147827529,2148047003,2149453677,2147877869,2147618486,2147506139,2148883547,2147258038,1140,2,15,32218
1373324046,5808,171.0200042724609400,18.2054004669189450,34.8278007507324200,217.4584045410156200,226.2225952148437500,18.2166900634765620,31.6467399597167970,62,109,87,81,64,15379,2147849974,2148131940,2149624886,2147881216,2147626706,2147553078,2148958153,2147265764,181,2,15,19238
1373324133,5805,167.8899993896484400,18.5186004638671880,34.8703002929687500,217.7046051025390600,216.7037048339843800,18.5073890686035160,31.5027503967285160,65,111,88,81,62,15375,2147872173,2148205577,2149757769,2147877833,2147633746,2147594697,2149011108,2147264521,295,2,15,22507
1373324242,5809,163.8899993896484400,18.7950992584228500,34.9067993164062500,217.4210052490234400,207.6950988769531200,18.7825202941894530,31.3942203521728500,71,113,86,81,64,15370,2147912347,2148334244,2149998564,2147882112,2147649115,2147661568,2149108918,2147277037,95,2,15,21929
1373324342,5809,159.4600067138672000,19.2010002136230470,34.9597015380859400,217.4528961181640600,194.4707946777343800,19.1865100860595700,31.2126598358154300,76,117,88,81,63,15364,2147977810,2148533412,2150377801,2147883273,2147673106,2147764736,2149272320,2147288685,473,2,15,51614
1373324429,5805,155.3200073242187500,19.4300994873046880,34.9886016845703100,218.1916046142578000,186.7212066650390600,19.4233093261718750,31.0690307617187500,80,115,88,82,62,15358,2148050779,2148718838,2150700132,2147889097,2147699181,2147864694,2149398134,2147296374,3385,2,15,46239
1373324505,5807,151.7799987792968800,19.6256008148193360,35.0197982788085940,219.3410949707031200,179.9635009765625000,19.6298599243164060,30.9182701110839840,79,117,89,82,61,15349,2148126976,2148918180,2151038317,2147894226,2147729462,2147960694,2149539099,2147307373,3036,2,15,56578
1373324592,5807,147.8500061035156200,19.7584991455078120,35.0400009155273440,220.4001007080078000,175.6493072509765600,19.7617607116699220,30.8056201934814450,80,115,88,82,62,15353,2148240064,2149189604,2151499446,2147894912,2147776438,2148104118,2149744448,2147324242,3021,2,15,18685
1373324693,5808,143.7700042724609400,20.1252994537353500,35.1029014587402340,221.9440002441406200,164.8661956787109400,20.0915393829345700,30.5824108123779300,79,116,86,82,62,15350,2148395392,2149530541,2152071753,2147903972,2147843373,2148306112,2149995940,2147343926,2418,2,15,60580
1373324802,5811,139.9299926757812500,20.4799003601074220,35.1540985107421900,224.0908966064453000,154.8688964843750000,20.3974609375000000,30.3413200378417970,86,114,88,82,63,15349,2148569206,2149905920,2152703040,2147911981,2147925129,2148530358,2150288777,2147367835,2340,2,16,17648
1373324911,5806,135.7700042724609400,20.7460002899169920,35.1955986022949200,226.7709960937500000,144.3587036132812500,20.7192802429199220,30.0697097778320300,90,118,89,81,61,15339,2148432749,2149389650,2151614756,2147904649,2147877010,2148269741,2149816630,2147331776,2810,1,15,37009
1373325005,5810,131.4799957275390600,20.7912006378173830,35.1999015808105500,229.3535003662109400,142.0756072998047000,20.7892208099365230,29.9130001068115230,91,115,88,82,60,15337,2149022372,2150854326,2154374034,2147943259,2148145718,2149091840,2151036425,2147421531,1839,2,15,55439
1373325081,5809,127.3399963378906200,20.7807006835937500,35.1893005371093750,229.9785003662109400,140.8567047119140600,20.8265590667724600,29.8669700622558600,93,118,88,82,62,15336,2149339940,2151477686,2155434605,2147965174,2148292288,2149427062,2151487881,2147457197,1390,2,16,23245
1373325157,5812,123.8899993896484400,20.9990005493164060,35.1433982849121100,220.8809967041015600,136.3415985107422000,20.9649200439453120,30.2594890594482420,106,126,92,81,63,15297,2149693696,2152095040,2156346989,2147981321,2148398299,2149642258,2151795638,2147484818,1172,2,15,61650
1373325268,5810,120.0299987792968800,21.0540008544921880,35.1488990783691400,214.1018066406250000,133.5106048583984400,21.0517005920410160,30.5734596252441400,111,125,88,84,62,15299,2150473408,2153402706,2158210761,2148022966,2148643858,2150149202,2152469622,2147548516,1760,1,15,41865
1373325388,5806,115.7399978637695300,21.1942005157470700,35.1593017578125000,213.1663055419922000,128.9933929443359400,21.1902103424072270,30.5629596710205080,121,123,89,81,61,15294,2151721371,2155344219,2160783670,2148080201,2149054454,2150907584,2153369380,2147637705,674,2,15,19362
1373325486,5811,112.0299987792968800,21.5088996887207030,35.1808013916015600,213.3520050048828000,119.1787033081054700,21.4913291931152340,30.4240303039550780,125,124,92,81,62,15284,2153110436,2157389120,2163350720,2148141915,2149530550,2151716132,2154286473,2147727195,2827,2,16,28165
1373325602,5809,107.1800003051757800,21.8535995483398440,35.2225990295410160,216.4387054443359400,107.5941009521484400,21.8471107482910160,30.1110401153564450,144,134,91,84,63,15244,2155580827,2160999789,2167904374,2148265472,2150391734,2153127881,2155898276,2147888758,2280,2,15,2895
1373325678,5807,103.3199996948242200,22.0816001892089840,35.2487983703613300,222.4411926269531200,100.4106979370117200,22.0679302215576170,29.7129096984863280,156,129,90,83,60,15230,2156050989,2161106404,2167076553,2148274258,2150585280,2153077385,2155559341,2147877778,1637,2,16,38015
1373325754,5809,99.7900009155273400,22.2057991027832030,35.2344017028808600,223.5189971923828000,96.2547073364257800,22.1957607269287100,29.6054401397705080,176,132,89,84,61,15213,2161579913,2169557101,2177977874,2148574948,2152520100,2156363995,2159445366,2148256137,1605,2,15,47573
1373325808,5808,97.8000030517578100,22.3304004669189450,35.2284011840820300,221.9129943847656200,93.1896209716796900,22.2900791168212900,29.6460399627685550,174,133,91,82,61,15194,2163865389,2172651940,2181451401,2148699620,2153195355,2157308077,2160430281,2148376457,1235,2,15,8955
1373325863,5806,96.2399978637695300,22.5079002380371100,35.2340011596679700,221.0783996582031200,86.8532791137695300,22.4851608276367200,29.6060504913330080,179,134,91,84,60,15186,2153215213,2155210770,2157162404,2148066587,2149503652,2150364233,2151659163,2147549074,606,1,15,2406
1373325942,5804,94.5000000000000000,22.8432998657226560,35.2622985839843750,222.5478973388672000,76.3743362426757800,22.8081207275390620,29.3983592987060550,186,133,88,84,60,15173,2169499593,2180331062,2189518720,2148960758,2155049636,2159945700,2163163693,2148677522,2713,1,15,62529
1373326085,5809,92.5899963378906200,22.9337997436523440,35.2715988159179700,225.7277984619140600,73.2737274169921900,22.9037494659423830,29.2026405334472660,129,125,92,85,59,15215,2162292004,2168595611,2173499940,2148523821,2152683309,2155563419,2157596269,2148144228,2554,2,15,38634
1373326257,5806,89.6200027465820300,23.0133991241455080,35.2764015197753900,227.0370941162109400,69.9851837158203100,23.0052299499511720,29.0970802307128900,99,121,88,83,59,15238,2169432740,2178083776,2183439040,2148815168,2155795355,2160353526,2162798747,2148646006,3556,2,16,2941
1373326312,5809,87.5699996948242200,23.0305995941162100,35.2770004272460940,227.8274993896484400,69.2677307128906200,23.0273799896240230,29.0500392913818360,97,124,91,83,59,15235,2182471670,2195937499,2204461696,2149700132,2160591881,2167611273,2170355748,2149454125,18,1,16,13129
1373326367,5808,85.5000000000000000,23.0678997039794920,35.2790985107421900,228.3670959472656200,68.0953292846679700,23.0635700225830080,29.0092201232910160,88,118,88,83,61,15239,2160397741,2163498139,2164739812,2148332800,2152650642,2154526610,2155400557,2147943872,3133,2,16,30076
1373326422,5809,83.4199981689453100,23.1112003326416000,35.2812995910644500,228.7955932617187500,66.9425964355468800,23.0991592407226560,28.9739799499511720,83,119,90,82,59,15249,2191246144,2205147108,2211939355,2150181129,2164972105,2173104557,2174726080,2149938002,2881,1,16,23097
1373326476,5812,81.5500030517578100,23.4214992523193360,35.2943000793457000,229.4346008300781200,57.3406181335449200,23.3958396911621100,28.8221702575683600,79,120,92,83,58,15255,2196986294,2211605056,2218213357,2150585956,2167819611,2176712941,2177652534,2150268086,3105,1,16,26852
1373326559,5807,78.9899978637695300,23.5293998718261720,35.3087005615234400,233.6309051513672000,52.9188117980957000,23.5326004028320300,28.5691604614257800,67,123,89,84,58,15258,2162759798,2164733357,2164638363,2148436699,2154398966,2155989010,2155796864,2148007241,2460,1,15,322
1373326614,5809,76.6299972534179700,23.6198997497558600,35.3296012878418000,236.0111999511718800,50.1830711364746100,23.6172599792480470,28.4250106811523440,68,120,91,84,59,15255,2187787547,2195929901,2198104054,2150083812,2166900105,2173180736,2171757723,2149668754,1690,1,16,8017
1373326669,5809,74.3000030517578100,23.7714004516601560,35.3456993103027340,238.6145935058593800,44.5438194274902340,23.7918796539306640,28.2359600067138670,69,125,90,83,54,15246,2216328064,2230601645,2235103360,2152238372,2181838948,2193074203,2189564836,2151554194,1081,1,16,14143
1373326724,5806,72.0000000000000000,23.9078006744384770,35.3566017150878900,241.0068054199218800,41.2560615539550800,23.8937492370605470,28.0875205993652340,66,124,92,85,59,15233,2222380178,2236165504,2239830829,2152885211,2187212132,2198896630,2193531803,2151985664,939,1,16,41862
1373326779,5808,69.8600006103515600,23.9290008544921880,35.3362007141113300,240.0917968750000000,40.2563514709472660,23.9247398376464840,28.1159992218017580,63,126,91,85,57,15246,2231555136,2245531547,2248842642,2153839670,2193994212,2206616173,2199246244,2152621312,820,2,16,263
1373326862,5806,66.2799987792968800,24.0601005554199220,35.3396987915039060,239.9253997802734400,35.9270896911621100,24.0589809417724600,28.0696296691894530,64,125,92,85,57,15240,2244994020,2258014528,2260075126,2155508278,2204850249,2217979465,2206997193,2153569197,750,1,16,9140
1373326917,5809,63.3400001525878900,24.2758007049560550,35.3297996520996100,241.1755065917968800,30.1376590728759770,24.2386493682861330,27.9423408508300780,61,129,92,85,59,15237,2185705426,2186498742,2183854756,2150140644,2172239149,2174990317,2169124288,2149430875,1017,2,16,16308
1373326971,5805,60.8199996948242200,24.3129997253417970,35.3317985534668000,241.5204010009765600,27.4334907531738280,24.3226299285888670,27.8934993743896500,61,126,90,85,60,15230,2275684187,2288792932,2289905197,2159712612,2229747684,2244995867,2226657179,2155995721,1562,1,16,20829
1373327026,5810,58.0299987792968750,24.4953002929687500,35.3442993164062500,241.7460937500000000,22.5711803436279300,24.4737300872802730,27.8235092163085940,60,126,91,85,58,15236,2262245705,2269897115,2267454756,2158538944,2227113709,2238912941,2219734930,2155200932,1933,1,16,16949
1373327081,5808,55.3300018310546900,24.6207008361816400,35.3414001464843750,242.3986968994140600,17.7654209136962900,24.6231994628906250,27.7354698181152340,60,127,90,86,54,15232,2305158473,2317069266,2316672978,2165397696,2257164562,2272562386,2245990336,2158808804,2493,1,16,31115
1373327138,5808,52.9500007629394500,24.7651996612548830,35.3518981933593750,243.5366973876953000,13.5991201400756840,24.7528800964355470,27.6341590881347660,58,126,92,85,57,15217,2197531236,2195569472,2190831945,2151753325,2184332214,2185028992,2174634934,2150237888,2554,1,16,12365
1373327193,5805,51.0999984741210940,24.8208999633789060,35.3405990600585940,243.9723968505859400,11.4352798461914060,24.8202705383300780,27.5886993408203120,59,125,90,86,60,15220,2286620315,2291107995,2286642587,2163960859,2255238189,2265418441,2237184969,2157789293,2297,1,16,44421
1373327259,5805,49.2200012207031250,24.8908996582031250,35.3422012329101560,244.0437927246093800,9.1398420333862300,24.8917808532714840,27.5574607849121100,59,126,94,85,54,15209,2314853312,2321284096,2318019273,2169809920,2274254784,2285166043,2251735341,2160253284,2393,1,16,46688
1373327347,5806,47.2400016784668000,24.9946994781494140,35.3521995544433600,243.7561950683593800,7.2275700569152830,24.9513797760009770,27.5464591979980470,56,127,93,87,54,15216,2243127149,2240741677,2233919414,2158498057,2225818688,2227759076,2205314432,2154108726,2677,1,16,1996
1373327435,5808,45.4799995422363300,25.0771007537841800,35.3540000915527340,244.2463989257812500,3.2021999359130860,25.0769100189209000,27.4759998321533200,56,127,93,84,57,15214,2348971675,2353970788,2350146614,2178145536,2307759433,2316794633,2273046784,2163441892,2962,2,16,33565
1373327529,5807,43.0999984741210940,25.4664001464843750,35.3572006225585940,244.8961944580078000,-8.9157075881958000,25.4553794860839840,27.2997398376464840,55,129,95,85,55,15211,2365833718,2367907922,2363579035,2183710217,2330262153,2337283885,2286716562,2165910290,369,1,16,63702
1373327595,5807,41.2599983215332000,25.7028999328613280,35.3492012023925800,244.7102966308593800,-16.2038593292236330,25.6834392547607420,27.2190895080566400,54,129,93,85,58,15207,2383656000,2385152923,2381049837,2189409517,2351490797,2357422912,2300570294,2168429705,1245,1,16,52994
1373327694,5809,39.4000015258789060,25.8651008605957030,35.3367996215820300,243.9550018310547000,-20.8550090789794920,25.8291492462158200,27.1951408386230470,54,125,93,84,57,15200,2254349284,2246146240,2236432384,2162805540,2247547419,2242860150,2212248082,2155776292,1400,1,16,14317
1373327822,5806,36.9799995422363300,26.0354995727539060,35.3202018737793000,242.3435974121093800,-27.6323509216308600,26.0417308807373050,27.1826496124267580,55,129,92,85,55,15200,2400174692,2400144091,2396858112,2201045504,2377197842,2379113133,2314525778,2172460626,1058,1,16,13837
1373327877,5808,35.1899986267089840,26.1082992553710940,35.3095016479492200,241.6047058105468800,-30.2222404479980470,26.1230392456054700,27.1833896636962900,54,129,92,86,54,15194,2410046518,2408720475,2406075446,2207195629,2389253805,2389204562,2321155693,2174237430,870,1,16,21408
1373327943,5802,33.2999992370605500,26.2639007568359380,35.2905006408691400,240.1851959228515600,-35.0335006713867200,26.2742195129394530,27.1870307922363280,54,129,92,85,56,15204,2422155766,2420985874,2417875008,2213356397,2404645805,2402139282,2329377426,2176403657,1231,1,16,951